Home > Weather > Ahvaz > Past weeks

Flag for Iran Weather for the Past 2 Weeks in Ahvaz, Iran

Now
64 °F

Sunny.


Feels Like: 64 °F
Forecast: 44 / 69 °F
Wind: 7 mph from West

Location: Ahwaz

Current Time: Feb 12, 2016 at 5:51:29 PM

Latest Report: Feb 12, 2016 at 5:30 PM


Visibility: 10 mi

Pressure: 30.09 "Hg

Humidity: 37%

Dew point: 37 °F

Location of AhvazLocation

Historic Weather in Ahvaz — Graph

°F

Ahvaz Temperature Yesterday

Maximum temperature yesterday: 63 °F (at 1:00 PM)
Minimum temperature yesterday: 54 °F (at 2:30 AM)
Average temperature yesterday: 57 °F

High & Low Weather Summary for the Past Weeks

 TemperatureHumidityPressure
High73 °F (Feb 5, 5:00 PM)93% (Feb 5, 7:00 AM)30.36 "Hg (Feb 5, 7:00 AM)
Low36 °F (Jan 29, 7:00 AM)28% (Feb 9, 3:00 PM)29.86 "Hg (Feb 7, 2:30 PM)
Average56 °F56%30.15 "Hg
* Reported Jan 28 4:30 PM — Feb 12 4:30 PM, Ahvaz, Weather by CustomWeather, © 2016

Note: Actual official high and low records may vary slightly from our data, if they occured in-between our weather recording intervals... More about our weather records

Advertising

Ahvaz Weather History for the Previous 24 Hours

 ConditionsComfort  
Time TempWeatherWind HumidityBarometerVisibility
4:30 PM
Fri, Feb 12
66 °FSunny.9 mph32%30.09 "Hg10 mi
4:00 PM66 °FSunny.7 mph32%30.12 "Hg10 mi
3:30 PM66 °FSunny.7 mph43%30.09 "Hg10 mi
3:00 PM66 °FSunny.9 mph37%30.09 "Hg10 mi
2:30 PM66 °FSunny.9 mph37%30.09 "Hg10 mi
2:00 PM66 °FSunny.7 mph40%30.09 "Hg10 mi
1:30 PM66 °FSunny.7 mph37%30.09 "Hg10 mi
1:00 PM64 °FSunny.7 mph43%30.12 "Hg10 mi
12:30 PM64 °FSunny.7 mph43%30.12 "Hg10 mi
12:00 PM63 °FSunny.9 mph45%30.12 "Hg10 mi
11:30 AM61 °FSunny.7 mph52%30.15 "Hg10 mi
11:00 AM59 °FSunny.7 mph59%30.15 "Hg10 mi
10:30 AM57 °FSunny.7 mph59%30.15 "Hg10 mi
9:55 AM55 °FClear.5 mph67%30.15 "Hg5 mi
9:30 AM54 °FClear.5 mph67%30.15 "Hg5 mi
9:00 AM52 °FClear.5 mph67%30.15 "Hg4 mi
8:30 AM50 °FClear.No wind71%30.15 "Hg4 mi
8:00 AM48 °FClear.5 mph76%30.15 "Hg4 mi
7:30 AM46 °FFog.5 mph82%30.12 "Hg3 mi
7:00 AM46 °FFog.5 mph82%30.12 "Hg3 mi
6:30 AM46 °FClear.5 mph82%30.12 "Hg5 mi
5:30 AM48 °FClear.5 mph76%30.09 "Hg10 mi
4:30 AM48 °FClear.5 mph76%30.09 "Hg10 mi
3:30 AM48 °FClear.5 mph82%30.12 "Hg10 mi
2:30 AM50 °FClear.5 mph82%30.12 "Hg10 mi
1:30 AM52 °FClear.5 mph77%30.12 "Hg10 mi
12:30 AM52 °FClear.5 mph77%30.12 "Hg10 mi
12:00 AM54 °FClear.5 mph67%30.12 "Hg10 mi
11:30 PM
Thu, Feb 11
54 °FClear.5 mph67%30.12 "Hg10 mi
11:00 PM54 °FClear.7 mph72%30.12 "Hg10 mi
10:30 PM54 °FClear.5 mph72%30.12 "Hg10 mi
10:00 PM54 °FClear.5 mph72%30.15 "Hg10 mi
9:30 PM55 °FClear.5 mph67%30.15 "Hg10 mi
9:00 PM55 °FClear.5 mph67%30.12 "Hg10 mi
8:30 PM55 °FClear.5 mph67%30.12 "Hg10 mi
8:00 PM57 °FClear.7 mph67%30.09 "Hg10 mi
7:30 PM57 °FClear.5 mph67%30.09 "Hg10 mi
6:30 PM59 °FPassing clouds.2 mph68%30.09 "HgN/A
6:00 PM61 °FScattered clouds.2 mph55%30.09 "HgN/A
5:30 PM61 °FScattered clouds.No wind55%30.09 "HgN/A
5:00 PM61 °FScattered clouds.No wind59%30.07 "HgN/A
Weather by CustomWeather, © 2016

See weather overviewHow to use our weather pages